Showing default

QIANFAN-48, 62249

Orbit data source: Space-Track

QIANFAN-48, 62249 is a Chinese payload satellite in LEO that was launched on Thu, 05 Dec 2024 UTC via a CHANG ZHENG 6A launch vehicle from the Taiyaun Space Center, China (TSC). Payload-class satellites include a variety of spacecraft equipped with specific instruments for various scientific and technological missions. These include communications satellites like Starlink; space stations such as the ISS; scientific satellites like the Hubble; Earth observation satellites from companies like Planet Labs, Umbra, and HawkEye 360; GPS; miniature CubeSats for education and research; and military/defense satellites.

Loading next visibility...
Identifier
62249, 2024-232N
Orbit
LEO
Country
Flag of CNCN / PRC
Related business
Manufacturer
SECM
Mission
Operational Commercial Communications
Bus & Motor
QIANFAN, Unknown motor
Mass
267 kg wet, ~267 kg dry
Launch date (UTC)
2024-12-05 (2 years ago)
Launch vehicle
CHANG ZHENG 6A
Launch site
Taiyaun Space Center, China (TSC)
Object type
Payload
Rocket body
Debris
Shape & HBR
Box + 1 Pan, 5.0 m
Radar Cross Section
13.200 m², Large (>1 m²)

Expand to show TLE details & history
Last TLE update: 9 hours ago

TLE from 9 hours ago
0 QIANFAN-48
1 62249U 24232N   26246.85008754  .00000084  00000-0  11054-3 0  9999
2 62249  89.0143  14.6100 0018344 149.9221 210.2988 13.51020885135046
Epoch: 2026-09-03T20:24Z
TLE epoch observation values (Epoch: 2026-09-03T20:24:07.563Z)
Latitude
0.00001°
Longitude
85.59614°
Altitude
1,083.261 km
Speed
7.305 km/s
True Right ascension
00h 58m 26s
True Declination
0° 00' 00"
Sunlit
Object was in full shadow at epoch
Visualization orbit readout
Latitude
Unknown
Longitude
Unknown
Altitude
Unknown
Speed
Unknown
Apparent Right ascension
Unknown
Apparent Declination
Unknown
Sunlit
N/A
Visualization observer readout
Local Sidereal Time
20:52:47
Azimuth
Unknown
Elevation
Unknown
Doppler factor
Unknown
Orbital elements
Apogee altitude
1,079.21 km
Perigee altitude
1,051.901 km
Semi-major axis
7,443.693 km
Eccentricity
0.00183
Inclination
89.0143°
RAAN
14.61°
Arg. of periapsis
149.9221°
True anomaly
210.19296°
Mean anomaly
210.2988°
Eccentric anomaly
210.24586°
Mean motion
3.37956 °/min
Orbital period
106.52 mins
BSTAR
0.00011054
Loading maneuver chart data...
Computing Atmospheric mass density...
Loading historical data...
Loading historical data...
Loading historical data...
Loading historical data...
Loading historical data...
Loading historical data...
Loading historical data...

Documentation

Showing up to 5 results
|